FW8813 Weather Reports


time (UTC)temp
C
wind
direction
speed
KPH
gust
KPH
rain 1hr
cm
rain 24hr
cm
rain mn
cm
humidity
%
barometer
mb
20260906111036 21 82 0.0 6.4 0.00 0.00 0.00 94 1014.6
20260906110535 21 107 0.0 6.4 0.00 0.00 0.00 94 1014.6
20260906110050 21 108 3.2 4.8 0.00 0.00 0.00 94 1014.7
20260906105534 21 105 0.0 4.8 0.00 0.00 0.00 94 1014.6
20260906105034 21 0 0.0 3.2 0.00 0.00 0.00 94 1014.7
20260906104557 21 103 0.0 3.2 0.00 0.00 0.00 94 1014.5
20260906104037 21 0 0.0 8.0 0.00 0.00 0.00 94 1014.4
20260906103534 21 0 0.0 8.0 0.00 0.00 0.00 94 1014.2
20260906103048 21 86 1.6 8.0 0.00 0.00 0.00 94 1014.1
20260906102534 21 0 0.0 1.6 0.00 0.00 0.00 94 1013.8
20260906102034 21 0 0.0 1.6 0.00 0.00 0.00 94 1013.8
20260906101557 21 0 0.0 1.6 0.00 0.00 0.00 94 1013.7
20260906101035 21 0 0.0 6.4 0.00 0.00 0.00 94 1013.5
20260906100536 21 96 0.0 8.0 0.00 0.00 0.00 94 1013.6
20260906100050 21 92 3.2 9.7 0.00 0.00 0.00 94 1013.6
20260906095533 21 89 3.2 9.7 0.00 0.00 0.00 95 1013.4
20260906095034 21 69 4.8 9.7 0.00 0.00 0.00 97 1013.4
20260906094605 21 121 0.0 3.2 0.00 0.00 0.00 96 1013.5
20260906094040 21 0 0.0 0.0 0.00 0.00 0.00 97 1013.5
20260906093535 20 0 0.0 0.0 0.00 0.00 0.00 96 1013.7
20260906093116 20 0 0.0 0.0 0.00 0.00 0.00 96 1013.7
20260906092534 20 0 0.0 0.0 0.00 0.00 0.00 96 1013.6
20260906092034 20 0 0.0 0.0 0.00 0.00 0.00 96 1013.6
20260906091606 20 0 0.0 0.0 0.00 0.00 0.00 97 1013.5
20260906091036 20 0 0.0 0.0 0.00 0.00 0.00 97 1013.5
20260906090535 20 0 0.0 0.0 0.00 0.00 0.00 97 1013.6
20260906090053 20 0 0.0 0.0 0.00 0.00 0.00 97 1013.5
20260906085534 20 0 0.0 0.0 0.00 0.00 0.00 97 1013.6
20260906085034 20 0 0.0 0.0 0.00 0.00 0.00 97 1013.4
20260906084549 20 0 0.0 0.0 0.00 0.00 0.00 97 1013.3
20260906084035 20 0 0.0 0.0 0.00 0.00 0.00 97 1013.2
20260906083534 20 0 0.0 0.0 0.00 0.00 0.00 97 1013.2
20260906083057 20 0 0.0 0.0 0.00 0.00 0.00 97 1013.1
20260906082534 20 0 0.0 0.0 0.00 0.00 0.00 96 1013.1
20260906082036 20 0 0.0 0.0 0.00 0.00 0.00 97 1013.1
20260906081555 20 0 0.0 0.0 0.00 0.00 0.00 97 1013.1
20260906081034 20 0 0.0 0.0 0.00 0.00 0.00 96 1013.1
20260906080534 20 0 0.0 0.0 0.00 0.00 0.00 96 1013.1
20260906080053 20 0 0.0 0.0 0.00 0.00 0.00 96 1013.1
20260906075533 20 0 0.0 0.0 0.00 0.00 0.00 96 1013.0
20260906075034 20 0 0.0 0.0 0.00 0.00 0.00 96 1013.0
20260906074553 20 0 0.0 1.6 0.00 0.00 0.00 96 1013.1
20260906074034 20 0 0.0 1.6 0.00 0.00 0.00 96 1013.2
20260906073539 20 0 0.0 1.6 0.00 0.00 0.00 96 1013.1
20260906073100 20 0 0.0 1.6 0.00 0.00 0.00 96 1013.0
20260906072534 20 297 1.6 1.6 0.00 0.00 0.00 95 1013.1
20260906072034 20 0 0.0 0.0 0.00 0.00 0.00 95 1013.0
20260906071556 20 0 0.0 0.0 0.00 0.00 0.00 95 1013.0
20260906071034 20 0 0.0 0.0 0.00 0.00 0.00 95 1013.1
20260906070535 20 0 0.0 0.0 0.00 0.00 0.00 94 1013.1
20260906070050 21 0 0.0 0.0 0.00 0.00 0.00 95 1013.2
20260906065535 21 0 0.0 0.0 0.00 0.00 0.00 95 1013.4
20260906065035 21 0 0.0 0.0 0.00 0.00 0.00 95 1013.3
20260906064548 21 0 0.0 0.0 0.00 0.00 0.00 95 1013.4
20260906064035 20 0 0.0 0.0 0.00 0.00 0.00 95 1013.4
20260906063534 21 0 0.0 0.0 0.00 0.00 0.00 94 1013.6
20260906063051 21 0 0.0 0.0 0.00 0.00 0.00 94 1013.5
20260906062537 21 0 0.0 0.0 0.00 0.00 0.00 95 1013.4
20260906062033 21 0 0.0 0.0 0.00 0.00 0.00 95 1013.5
20260906061559 21 0 0.0 0.0 0.00 0.00 0.00 95 1013.5
20260906061034 20 0 0.0 0.0 0.00 0.00 0.00 94 1013.6
20260906060534 21 0 0.0 1.6 0.00 0.00 0.00 93 1013.5
20260906060058 21 0 0.0 3.2 0.00 0.00 0.00 93 1013.5
20260906055534 21 0 1.6 3.2 0.00 0.00 0.00 92 1013.5
20260906055034 21 0 0.0 0.0 0.00 0.00 0.00 93 1013.6
20260906054602 21 0 0.0 0.0 0.00 0.00 0.00 92 1013.5
20260906054034 21 0 0.0 0.0 0.00 0.00 0.00 92 1013.6
20260906053533 21 0 0.0 0.0 0.00 0.00 0.00 91 1013.7
20260906053050 22 0 0.0 0.0 0.00 0.00 0.00 89 1013.6
20260906052534 22 0 0.0 0.0 0.00 0.00 0.00 89 1013.7
20260906052034 22 0 0.0 0.0 0.00 0.00 0.00 90 1013.6
20260906051558 22 0 0.0 0.0 0.00 0.00 0.00 91 1013.8
20260906051033 22 0 0.0 0.0 0.00 0.00 0.00 90 1013.6
20260906050533 22 0 0.0 0.0 0.00 0.00 0.00 90 1013.7
20260906050106 22 0 0.0 0.0 0.00 0.00 0.00 89 1013.7
20260906045534 22 0 0.0 0.0 0.00 0.00 0.00 89 1013.9
20260906045034 22 0 0.0 0.0 0.00 0.00 0.00 89 1013.9
20260906044557 22 0 0.0 0.0 0.00 0.00 0.00 88 1013.9
20260906044037 22 0 0.0 0.0 0.00 0.00 0.00 88 1013.9
20260906043537 22 0 0.0 1.6 0.00 0.00 0.00 88 1013.9
20260906043048 22 0 0.0 1.6 0.00 0.00 0.00 87 1014.0
20260906042533 22 0 0.0 3.2 0.00 0.00 0.00 86 1014.1
20260906042033 23 0 0.0 3.2 0.00 0.00 0.00 85 1014.1
20260906041547 23 103 0.0 3.2 0.00 0.00 0.00 86 1014.1
20260906041034 23 0 0.0 0.0 0.00 0.00 0.00 85 1014.1
20260906040533 23 0 0.0 4.8 0.00 0.00 0.00 85 1014.0
20260906035537 23 0 0.0 3.2 0.00 0.00 0.00 85 1013.8
20260906035034 22 0 0.0 3.2 0.00 0.00 0.00 85 1013.9
20260906034550 22 127 0.0 1.6 0.00 0.00 0.00 83 1013.7
20260906034033 23 0 0.0 0.0 0.00 0.00 0.00 82 1013.6
20260906033533 23 0 0.0 0.0 0.00 0.00 0.00 81 1013.8
20260906033049 23 0 0.0 1.6 0.00 0.00 0.00 81 1013.7
20260906032534 22 0 0.0 1.6 0.00 0.00 0.00 81 1013.7
20260906032033 22 0 0.0 1.6 0.00 0.00 0.00 81 1013.6
20260906031552 23 0 0.0 0.0 0.00 0.00 0.00 81 1013.6
20260906031034 23 0 0.0 0.0 0.00 0.00 0.00 80 1013.6
20260906030534 23 0 0.0 0.0 0.00 0.00 0.00 79 1013.7
20260906030049 24 0 0.0 0.0 0.00 0.00 0.00 78 1013.6
20260906025533 25 0 0.0 3.2 0.00 0.00 0.00 74 1013.6
20260906025034 25 0 0.0 3.2 0.00 0.00 0.00 74 1013.6
20260906024600 25 345 1.6 3.2 0.00 0.00 0.00 73 1013.5
20260906024033 25 329 0.0 1.6 0.00 0.00 0.00 73 1013.6
20260906023534 25 0 0.0 0.0 0.00 0.00 0.00 73 1013.8
20260906023052 25 0 0.0 4.8 0.00 0.00 0.00 73 1013.6
20260906022534 25 0 1.6 4.8 0.00 0.00 0.00 72 1013.5
20260906022034 25 352 3.2 4.8 0.00 0.00 0.00 71 1013.7
20260906021551 25 350 0.0 3.2 0.00 0.00 0.00 72 1013.5
20260906021035 25 0 0.0 0.0 0.00 0.00 0.00 72 1013.4
20260906020534 25 0 0.0 0.0 0.00 0.00 0.00 71 1013.3
20260906020059 26 0 0.0 0.0 0.00 0.00 0.00 70 1013.3
20260906015533 26 0 0.0 4.8 0.00 0.00 0.00 68 1013.3
20260906015033 27 0 1.6 6.4 0.00 0.00 0.00 67 1013.3
20260906014638 27 7 3.2 8.0 0.00 0.00 0.00 66 1013.2
20260906014033 27 331 3.2 8.0 0.00 0.00 0.00 66 1013.3
20260906013534 27 335 1.6 11.3 0.00 0.00 0.00 65 1013.2
20260906013058 27 18 6.4 11.3 0.00 0.00 0.00 65 1013.3
20260906012533 27 6 3.2 9.7 0.00 0.00 0.00 65 1013.2
20260906012036 27 290 3.2 17.7 0.00 0.00 0.00 64 1013.1
20260906011548 27 357 6.4 17.7 0.00 0.00 0.00 63 1013.1
20260906011034 27 11 6.4 12.9 0.00 0.00 0.00 64 1012.8
20260906010534 27 335 3.2 20.9 0.00 0.00 0.00 64 1012.7
20260906010101 27 356 8.0 20.9 0.00 0.00 0.00 64 1012.8
20260906005533 27 336 8.0 19.3 0.00 0.00 0.00 63 1012.6
20260906005034 27 35 8.0 19.3 0.00 0.00 0.00 64 1012.5
20260906004606 27 20 9.7 16.1 0.00 0.00 0.00 65 1012.5
20260906004036 26 311 3.2 14.5 0.00 0.00 0.00 67 1012.4
20260906003535 26 26 3.2 14.5 0.00 0.00 0.00 69 1012.7
20260906003059 26 295 1.6 3.2 0.00 0.00 0.00 71 1012.6
20260906002533 26 29 0.0 3.2 0.00 0.00 0.00 71 1012.4
20260906002034 26 307 0.0 3.2 0.00 0.00 0.00 70 1012.2
20260906001557 26 0 0.0 3.2 0.00 0.00 0.00 68 1012.4
20260906001034 26 0 0.0 4.8 0.00 0.00 0.00 69 1012.2
20260906000536 26 0 0.0 4.8 0.00 0.00 0.00 67 1012.3
20260906000100 27 0 1.6 4.8 0.00 0.00 0.00 71 1012.2
20260905235533 27 0 1.6 4.8 0.00 0.00 0.00 70 1012.1
20260905235033 27 355 1.6 4.8 0.00 0.00 0.00 66 1012.2
20260905234603 27 293 0.0 4.8 0.00 0.00 0.00 63 1012.2
20260905234034 27 306 1.6 9.7 0.00 0.00 0.00 63 1012.1
20260905233535 27 0 0.0 9.7 0.00 0.00 0.00 64 1012.0
20260905233059 27 23 1.6 3.2 0.00 0.00 0.00 64 1012.0
20260905232534 28 300 1.6 3.2 0.00 0.00 0.00 64 1012.0
20260905232034 28 276 0.0 3.2 0.00 0.00 0.00 63 1012.1
20260905231557 28 286 1.6 3.2 0.00 0.00 0.00 63 1012.0
20260905231036 28 287 1.6 6.4 0.00 0.00 0.00 63 1012.0
20260905230534 29 284 3.2 6.4 0.00 0.00 0.00 63 1011.9
20260905230053 30 283 3.2 6.4 0.00 0.00 0.00 60 1011.9
20260905225534 30 271 1.6 4.8 0.00 0.03 0.00 61 1011.9
20260905225033 31 308 0.0 6.4 0.00 0.03 0.00 62 1011.9
20260905224548 31 62 1.6 6.4 0.00 0.03 0.00 60 1012.1
20260905224035 32 0 0.0 0.0 0.00 0.03 0.00 62 1012.0
20260905223534 32 0 0.0 0.0 0.00 0.03 0.00 61 1012.0
20260905223058 32 0 0.0 0.0 0.00 0.03 0.00 62 1012.1
20260905222534 31 0 0.0 0.0 0.00 0.03 0.00 64 1011.9
20260905222037 31 0 0.0 0.0 0.00 0.03 0.00 63 1012.1
20260905221611 30 0 0.0 0.0 0.00 0.03 0.00 65 1012.1
20260905221038 30 0 0.0 4.8 0.00 0.03 0.00 65 1012.0
20260905220536 30 0 0.0 4.8 0.00 0.03 0.00 67 1012.0
20260905220049 30 286 3.2 4.8 0.00 0.03 0.00 65 1011.9
20260905215535 30 300 1.6 3.2 0.00 0.03 0.00 66 1011.9
20260905215035 30 298 0.0 3.2 0.00 0.03 0.00 66 1011.9
20260905214601 30 0 0.0 4.8 0.00 0.03 0.00 65 1012.2
20260905214034 30 269 1.6 4.8 0.00 0.03 0.00 64 1012.1
20260905213536 30 275 1.6 4.8 0.00 0.03 0.00 64 1012.2
20260905213103 30 0 0.0 3.2 0.00 0.03 0.00 66 1012.1
20260905212534 30 268 1.6 4.8 0.00 0.03 0.00 65 1012.1
20260905212033 30 0 1.6 4.8 0.00 0.03 0.00 64 1012.1
20260905211550 30 261 1.6 4.8 0.00 0.03 0.00 65 1012.0
20260905211034 30 0 1.6 4.8 0.00 0.03 0.00 65 1012.1
20260905210534 30 269 1.6 4.8 0.00 0.03 0.00 66 1012.0
20260905210059 29 272 0.0 3.2 0.00 0.03 0.00 67 1011.9
20260905205533 29 263 0.0 4.8 0.00 0.03 0.00 67 1011.8
20260905205036 29 0 0.0 6.4 0.00 0.03 0.00 67 1012.0
20260905204555 29 276 1.6 6.4 0.00 0.03 0.00 68 1012.1
20260905204034 29 270 3.2 8.0 0.00 0.03 0.00 66 1012.2
20260905203534 29 265 0.0 8.0 0.00 0.03 0.00 69 1012.3
20260905203053 29 266 1.6 8.0 0.00 0.03 0.00 66 1012.2
20260905202533 29 296 3.2 8.0 0.00 0.03 0.00 67 1012.1
20260905202035 30 248 3.2 8.0 0.00 0.03 0.00 65 1012.1
20260905201609 30 0 0.0 3.2 0.00 0.03 0.00 67 1012.0
20260905201034 30 266 0.0 3.2 0.00 0.03 0.00 68 1011.9
20260905200534 29 231 0.0 4.8 0.00 0.03 0.00 69 1011.8
20260905200051 29 233 1.6 11.3 0.00 0.03 0.00 69 1012.0
20260905195534 29 160 3.2 11.3 0.00 0.03 0.00 69 1011.9
20260905195034 29 161 3.2 11.3 0.00 0.03 0.00 68 1011.8
20260905194557 29 131 1.6 4.8 0.00 0.03 0.00 70 1011.9
20260905194034 29 0 0.0 6.4 0.00 0.03 0.00 69 1012.1
20260905193536 29 223 1.6 6.4 0.00 0.03 0.00 69 1012.1
20260905193107 29 141 0.0 3.2 0.00 0.03 0.00 70 1012.0
20260905192534 28 110 0.0 4.8 0.00 0.03 0.00 71 1011.8
20260905192035 28 234 1.6 6.4 0.00 0.03 0.00 71 1011.6
20260905191549 28 0 1.6 6.4 0.00 0.03 0.00 73 1011.8
20260905191034 28 172 1.6 6.4 0.00 0.03 0.00 73 1011.5
20260905190534 28 181 0.0 6.4 0.00 0.03 0.00 72 1011.5
20260905185535 27 116 3.2 8.0 0.00 0.03 0.00 73 1011.0
20260905185035 27 143 1.6 3.2 0.00 0.03 0.00 76 1011.3
20260905184557 27 0 0.0 1.6 0.00 0.03 0.00 76 1011.4
20260905184036 27 0 0.0 4.8 0.00 0.03 0.00 77 1011.7
20260905183534 26 0 1.6 6.4 0.00 0.03 0.00 79 1011.9
20260905183100 26 0 0.0 6.4 0.00 0.03 0.00 77 1012.0
20260905182536 26 189 3.2 6.4 0.00 0.03 0.00 80 1011.9
20260905182034 26 226 1.6 3.2 0.00 0.03 0.00 78 1012.3
20260905181609 26 0 0.0 0.0 0.00 0.03 0.00 77 1012.5
20260905181036 26 0 0.0 4.8 0.00 0.03 0.00 77 1012.8
20260905180534 26 0 0.0 9.7 0.00 0.03 0.00 76 1013.0
20260905180127 26 259 3.2 9.7 0.00 0.03 0.00 74 1013.2
20260905175535 27 308 4.8 25.7 0.00 0.03 0.00 73 1013.1
20260905175038 27 288 4.8 25.7 0.00 0.03 0.00 71 1013.2
20260905174556 28 277 8.0 20.9 0.00 0.03 0.00 68 1013.2
20260905174035 28 295 6.4 12.9 0.00 0.03 0.00 69 1013.5
20260905173535 28 289 6.4 12.9 0.00 0.03 0.00 68 1013.7
20260905173051 29 288 6.4 14.5 0.00 0.03 0.00 69 1013.8
20260905172534 29 289 4.8 16.1 0.00 0.03 0.00 69 1013.9
20260905172034 30 336 6.4 16.1 0.00 0.03 0.00 68 1014.2
20260905171557 30 327 8.0 17.7 0.00 0.03 0.00 67 1014.2
20260905171034 30 286 6.4 17.7 0.00 0.03 0.00 67 1014.1
20260905170534 30 326 9.7 17.7 0.00 0.03 0.00 67 1014.2
20260905170050 31 316 8.0 22.5 0.00 0.03 0.00 67 1014.2
20260905165535 31 28 9.7 22.5 0.00 0.03 0.00 65 1014.2
20260905165034 31 329 8.0 22.5 0.00 0.03 0.00 64 1014.1
20260905164546 32 352 8.0 17.7 0.00 0.03 0.00 61 1014.1
20260905164035 32 349 6.4 16.1 0.00 0.03 0.00 60 1013.9
20260905163534 32 283 6.4 19.3 0.00 0.03 0.00 59 1014.0
20260905163058 33 32 6.4 19.3 0.00 0.03 0.00 59 1013.9
20260905162535 33 39 8.0 19.3 0.00 0.03 0.00 60 1013.9
20260905162034 33 327 8.0 19.3 0.00 0.03 0.00 57 1013.9
20260905161600 33 295 6.4 16.1 0.00 0.03 0.00 58 1014.0
20260905161034 32 13 4.8 16.1 0.00 0.03 0.00 60 1014.2
20260905160533 32 15 9.7 17.7 0.00 0.03 0.00 59 1014.4
20260905160048 32 302 8.0 17.7 0.00 0.03 0.00 59 1014.2
20260905155536 32 290 8.0 16.1 0.00 0.03 0.00 61 1014.3
20260905155035 32 286 6.4 16.1 0.00 0.03 0.00 58 1014.2
20260905154611 32 329 6.4 16.1 0.00 0.03 0.00 59 1014.2
20260905154036 32 311 6.4 14.5 0.00 0.03 0.00 62 1014.4
20260905153534 32 347 4.8 14.5 0.00 0.03 0.00 65 1014.4
20260905153057 32 27 3.2 12.9 0.00 0.03 0.00 62 1014.5
20260905152534 32 33 3.2 20.9 0.00 0.03 0.00 61 1014.5
20260905152035 32 52 8.0 20.9 0.00 0.03 0.00 61 1014.5
20260905151601 32 300 8.0 14.5 0.00 0.03 0.00 59 1014.5
20260905151033 32 350 4.8 11.3 0.00 0.03 0.00 61 1014.4
20260905150533 33 52 1.6 8.0 0.00 0.03 0.00 60 1014.4
20260905150048 33 0 1.6 4.8 0.00 0.03 0.00 61 1014.4
20260905145535 32 108 0.0 6.4 0.00 0.03 0.00 62 1014.3
20260905145034 32 0 0.0 6.4 0.00 0.03 0.00 65 1014.3
20260905144558 32 8 1.6 6.4 0.00 0.03 0.00 63 1014.4
20260905144035 31 97 1.6 4.8 0.00 0.03 0.00 66 1014.4
20260905143538 31 132 3.2 6.4 0.00 0.03 0.00 70 1014.3
20260905143056 31 176 3.2 6.4 0.00 0.03 0.00 71 1014.4
20260905142535 31 137 1.6 8.0 0.00 0.03 0.00 72 1014.4
20260905142038 30 175 4.8 8.0 0.00 0.03 0.00 73 1014.4
20260905141552 30 121 4.8 8.0 0.00 0.03 0.00 74 1014.4
20260905141033 30 136 3.2 6.4 0.00 0.03 0.00 74 1014.3
20260905140534 30 122 3.2 6.4 0.00 0.03 0.00 76 1014.2
20260905135534 30 168 3.2 8.0 0.00 0.03 0.00 71 1014.2
20260905135035 30 113 1.6 6.4 0.00 0.03 0.00 71 1014.2
20260905134556 30 0 3.2 4.8 0.00 0.03 0.00 77 1014.1
20260905134034 30 0 0.0 0.0 0.00 0.03 0.00 74 1014.2
20260905133534 30 0 0.0 0.0 0.00 0.03 0.00 75 1014.1
20260905133049 29 0 0.0 0.0 0.00 0.03 0.00 74 1014.2
20260905132534 28 0 0.0 0.0 0.00 0.03 0.00 77 1014.2
20260905132035 28 0 0.0 1.6 0.00 0.03 0.00 75 1014.2
20260905131607 28 0 0.0 1.6 0.00 0.03 0.00 77 1014.1
20260905131034 27 0 0.0 3.2 0.00 0.03 0.00 78 1014.2
20260905130536 27 0 0.0 3.2 0.00 0.03 0.00 78 1014.1
20260905130055 27 0 0.0 0.0 0.00 0.03 0.00 82 1014.2
20260905125534 26 0 0.0 0.0 0.00 0.03 0.00 85 1014.4
20260905125034 26 0 0.0 0.0 0.00 0.03 0.00 85 1014.3
20260905124552 26 0 0.0 0.0 0.00 0.03 0.00 85 1014.4
20260905124034 25 0 0.0 0.0 0.00 0.03 0.00 85 1014.3
20260905123533 25 0 0.0 0.0 0.00 0.03 0.00 86 1014.3
20260905123049 25 0 0.0 0.0 0.00 0.03 0.00 88 1014.1
20260905122533 24 0 0.0 0.0 0.00 0.03 0.00 89 1014.4
20260905122034 23 0 0.0 0.0 0.00 0.03 0.00 91 1014.3
20260905121558 23 0 0.0 0.0 0.00 0.03 0.00 91 1014.2
20260905121034 22 0 0.0 4.8 0.00 0.03 0.00 93 1014.2
20260905120534 22 0 0.0 4.8 0.00 0.03 0.00 93 1014.0
20260905120052 22 0 0.0 1.6 0.00 0.03 0.00 96 1014.0
20260905115534 21 0 0.0 1.6 0.00 0.03 0.00 97 1013.9
20260905115035 21 0 0.0 1.6 0.00 0.03 0.00 97 1013.7
20260905114550 21 326 0.0 1.6 0.00 0.03 0.00 98 1013.8
20260905114033 20 0 0.0 1.6 0.00 0.03 0.00 98 1013.7
20260905113534 20 0 0.0 0.0 0.00 0.03 0.00 98 1013.7
20260905113047 20 0 0.0 0.0 0.00 0.03 0.00 97 1013.7
20260905112534 20 0 0.0 0.0 0.00 0.03 0.00 98 1013.8
20260905112036 19 0 0.0 0.0 0.00 0.03 0.00 98 1013.8
20260905111604 19 0 0.0 0.0 0.00 0.03 0.00 98 1013.8